Location: Dead Woman Crossing
(43.5369°N, 106.3228°W)
Time: 02:55:16
(UTC+00:00)

QB50P2 - Pass Details

Date: 02 July 2022
Orbit: 590 x 605 km, 97.9° (Epoch: 13 August)

Event Time Altitude Azimuth Distance (km) Brightness Sun altitude
Rises 09:55:30 0° 353° (N) 2,861 ? -13.3°
Reaches altitude 10° 09:58:42 10° 327° (NNW) 1,955 ? -12.9°
Maximum altitude 10:00:42 13° 298° (WNW) 1,746 ? -12.7°
Drops below altitude 10° 10:02:43 10° 270° (W) 1,952 ? -12.5°
Enters shadow 10:03:05 - 266° (W) 2,028 ? -12.4°
